Regional Weather Roundup
Issued by NWS Jackson, KY

Home | Current Version | Previous Version | Text Only | Print | Product List | Glossary Off
Versions: 1 2 3 4 5 6 7 8 9 10 11 12 13 14 15 16 17 18 19 20 21 22 23 24 25 26 27 28 29 30 31 32 33 34 35 36 37 38 39 40 41 42 43 44 45 46 47 48 49 50

586
ASUS43 KJKL 121810
RWRJKL

EAST KENTUCKY HOURLY WEATHER ROUNDUP
NATIONAL WEATHER SERVICE JACKSON KY
100 PM EST FRI FEB 12 2016

NOTE: "FAIR" INDICATES FEW OR NO CLOUDS BELOW 12,000 FEET WITH
NO SIGNIFICANT WEATHER AND/OR OBSTRUCTIONS TO VISIBILITY.

* THESE REPORTS ARE NOT UNDER NWS QUALITY CONTROL AND MAY NOT
  REPORT WEATHER SUCH AS PRECIPITATION AND FOG.

KYZ079-080-083-085-087-088-110-112-115-119-120-121900
...EASTERN KENTUCKY...

CITY           SKY/WX    TMP DP  RH WIND       PRES   REMARKS
JACKSON        FLURRIES  28  20  71 VRB3      30.09F
6HR MIN TEMP:  21; 6HR MAX TEMP:  28; 6HR PCP: TRACE;

LONDON         CLOUDY    28  23  81 W6        30.12F WCI  22
6HR MIN TEMP:  23; 6HR MAX TEMP:  28; 6HR PCP:  0.06;

SOMERSET*      CLOUDY    28  25  86 CALM      30.17F
MONTICELLO*    FLURRIES  31  26  82 W9        30.18F WCI  23
6HR MIN TEMP:  24; 6HR MAX TEMP:  32; 6HR PCP:  0.06;

WILLIAMSBURG*  CLOUDY    28  27  93 W5        30.13F WCI  23
MIDDLESBORO*   CLOUDY    30  29  95 CALM      30.12F FOG
6HR MIN TEMP:  27; 6HR MAX TEMP:  30; 6HR PCP:  0.03;

HARLAN APT*    CLOUDY    30  27  86 SW3       30.09F
HAZARD APT*    LGT SNOW  25  19  80 W3        30.10F
BLACK MTN*       N/A     25  25 100 NE2         N/A
BIG SANDY*     CLOUDY    29  15  54 CALM      30.09F
6HR MIN TEMP:  20; 6HR MAX TEMP:  30;

MOREHEAD APT*  CLOUDY    30  12  47 W5        30.12F WCI  25
$$

KYZ035-036-041-042-044-050-067-078-099-121900
...CENTRAL KENTUCKY...

CITY           SKY/WX    TMP DP  RH WIND       PRES   REMARKS
MT STERLING*   CLOUDY    32  19  59 SW8       30.12F WCI  25
DANVILLE*      CLOUDY    30  23  74 W3        30.14F
RICHMOND*      CLOUDY    28  23  80 SW5       30.11F WCI  23
LEXINGTON      CLOUDY    31  20  63 W12       30.11F WCI  22
6HR MIN TEMP:  24; 6HR MAX TEMP:  32; 6HR PCP: TRACE;

FRANKFORT      CLOUDY    31  18  58 W8        30.13F WCI  23
6HR MIN TEMP:  25; 6HR MAX TEMP:  31;

$$

KYZ091>093-OHZ055-061-077-WVZ005-015-034-035-042-121900
...SOUTHERN OHIO/WEST VIRGINIA...

CITY           SKY/WX    TMP DP  RH WIND       PRES   REMARKS
COVINGTON      CLOUDY    27  18  69 SW8       30.11F WCI  19
COLUMBUS       CLOUDY    22   8  55 SW8       30.08F WCI  12
DAYTON         CLOUDY    24  11  57 W17       30.08F WCI  11
WILMINGTON     CLOUDY    23  15  71 W12       30.08F WCI  12
HUNTINGTON     CLOUDY    29  10  45 W7        30.10F WCI  22
CHARLESTON     CLOUDY    27  10  49 W5        30.07F WCI  22
PINEVILLE*     LGT SNOW  28  18  65 MISG      30.08F
BECKLEY        LGT SNOW  27  16  63 W8        29.97F WCI  19
$$

VAZ002-007-008-TNZ017-027-036-066-071-121900
...SOUTHWEST VIRGINIA/EAST TENNESSEE...

CITY           SKY/WX    TMP DP  RH WIND       PRES   REMARKS
BRISTOL        SNOW      30  28  92 W7        30.07F VSB 1/2 WCI  23
KNOXVILLE      FLURRIES  32  29  88 W6        30.13S WCI  26
OAK RIDGE      CLOUDY    34  30  85 CALM      30.14F
CROSSVILLE     CLOUDY    35  28  75 W8        30.11F WCI  29
NASHVILLE      CLOUDY    41  23  48 N5        30.20F
$$

...KEY TO REMARKS...
VSB - VISIBILITY IN MILES
WCI - WIND CHILL INDEX
HX  - HEAT INDEX

$$




USA.gov is the U.S. government's official web portal to all federal, state and local government web resources and services.